Terminal Aerodrome Forecast
Issued by NWS Omaha/Valley, NE

Home | Current Version | Previous Version | Graphics & Text | Print | Product List | Glossary On
Versions: 1 2 3 4 5 6 7 8 9 10 11 12 13 14 15 16 17 18 19 20 21 22 23 24 25 26 27 28 29 30 31 32 33 34 35 36 37 38 39 40 41 42 43 44 45 46 47 48
000
FTUS43 KOAX 262320
TAFOFK
TAF
KOFK 262320Z 2700/2724 36012KT P6SM SCT025 BKN035
      TEMPO 2700/2702 6SM -SN BKN025
     FM270200 35008KT P6SM FEW020
     FM270800 VRB04KT P6SM SKC
     FM271600 20006KT P6SM SCT120=

USA.gov is the U.S. government's official web portal to all federal, state and local government web resources and services.